• In Netherlands
  • List of Countries
  • For 7 days
  • Water Temperature
  • Satellite Maps
  • Weather Map
  • Weather Widgets
  • user-avatar
    Login

    Hourly Weather Wavre

    Today, 24 November, Friday

    Time Temperature Precipitation Wind Pressure Humidity
    00:00 +9°C° 0 mm 3 mps 751 mmHg 84%
    01:00 +9°C° 0.7 mm 3 mps 750 mmHg 86%
    02:00 +9°C° 0.7 mm 2 mps 749 mmHg 88%
    03:00 +9°C° 0.7 mm 2 mps 749 mmHg 91%
    04:00 +9°C° 1.3 mm 3 mps 749 mmHg 91%
    05:00 +8°C° 1.3 mm 3 mps 749 mmHg 91%
    06:00 +7°C° 0 mm 2 mps 750 mmHg 90%
    07:00 +7°C° 0.1 mm 2 mps 750 mmHg 89%
    08:00 +7°C° 0.1 mm 3 mps 750 mmHg 89%
    09:00 +7°C° 0.1 mm 3 mps 751 mmHg 88%
    10:00 +8°C° 0 mm 3 mps 751 mmHg 84%
    11:00 +9°C° 0 mm 3 mps 752 mmHg 81%
    12:00 +10°C° 0 mm 3 mps 752 mmHg 77%
    13:00 +9°C° 0 mm 3 mps 752 mmHg 79%
    14:00 +9°C° 0 mm 2 mps 752 mmHg 80%
    15:00 +10°C° 0 mm 1 mps 752 mmHg 82%
    16:00 +9°C° 0.4 mm 1 mps 753 mmHg 84%
    17:00 +8°C° 0.4 mm 1 mps 753 mmHg 87%
    18:00 +8°C° 0.4 mm 1 mps 753 mmHg 90%
    19:00 +8°C° 0.9 mm 1 mps 753 mmHg 91%
    20:00 +7°C° 0.9 mm 1 mps 753 mmHg 91%
    21:00 +6°C° 0.9 mm 2 mps 752 mmHg 92%
    22:00 +6°C° 0.5 mm 2 mps 752 mmHg 91%
    23:00 +6°C° 0.5 mm 2 mps 752 mmHg 91%

    Tomorrow, 25 November, Saturday

    Time Temperature Precipitation Wind Pressure Humidity
    00:00 +6°C° 0.5 mm 2 mps 752 mmHg 90%
    01:00 +6°C° 0.1 mm 2 mps 752 mmHg 90%
    02:00 +5°C° 0.1 mm 2 mps 751 mmHg 89%
    03:00 +5°C° 0.1 mm 2 mps 751 mmHg 89%
    04:00 +4°C° 0 mm 2 mps 751 mmHg 90%
    05:00 +4°C° 0 mm 2 mps 751 mmHg 90%
    06:00 +3°C° 0 mm 2 mps 751 mmHg 91%
    07:00 +4°C° 0 mm 2 mps 752 mmHg 89%
    08:00 +4°C° 0 mm 2 mps 752 mmHg 87%
    09:00 +5°C° 0 mm 2 mps 753 mmHg 85%
    10:00 +5°C° 0 mm 3 mps 753 mmHg 79%
    11:00 +5°C° 0 mm 3 mps 754 mmHg 73%
    12:00 +6°C° 0 mm 4 mps 754 mmHg 67%
    13:00 +6°C° 0.2 mm 4 mps 754 mmHg 70%
    14:00 +5°C° 0.2 mm 4 mps 755 mmHg 72%
    15:00 +4°C° 0.2 mm 4 mps 755 mmHg 75%
    16:00 +4°C° 0.1 mm 4 mps 756 mmHg 76%
    17:00 +3°C° 0.1 mm 4 mps 756 mmHg 78%
    18:00 +3°C° 0.1 mm 3 mps 757 mmHg 79%
    19:00 +2°C° 0 mm 3 mps 757 mmHg 80%
    20:00 +2°C° 0 mm 3 mps 758 mmHg 82%
    21:00 +1°C° 0 mm 3 mps 758 mmHg 83%
    22:00 +1°C° 0 mm 3 mps 759 mmHg 84%
    23:00 +1°C° 0 mm 3 mps 759 mmHg 85%

    Day after tomorrow, 26 November, Sunday

    Time Temperature Precipitation Wind Pressure Humidity
    00:00 +1°C° 0 mm 3 mps 760 mmHg 85%
    01:00 0°C° 0 mm 4 mps 760 mmHg 85%
    02:00 0°C° 0 mm 4 mps 760 mmHg 85%
    03:00 0°C° 0 mm 4 mps 760 mmHg 86%
    04:00 0°C° 0 mm 4 mps 760 mmHg 86%
    05:00 -1°C° 0 mm 4 mps 760 mmHg 86%
    06:00 -1°C° 0 mm 4 mps 761 mmHg 86%
    07:00 0°C° 0.1 mm 4 mps 761 mmHg 84%
    08:00 0°C° 0.1 mm 5 mps 761 mmHg 82%
    09:00 +1°C° 0.1 mm 5 mps 762 mmHg 80%
    10:00 +2°C° 0.1 mm 5 mps 762 mmHg 77%
    11:00 +3°C° 0.1 mm 5 mps 762 mmHg 74%
    12:00 +4°C° 0.1 mm 6 mps 762 mmHg 71%
    13:00 +3°C° 0.1 mm 5 mps 762 mmHg 72%
    14:00 +4°C° 0.1 mm 4 mps 763 mmHg 74%
    15:00 +4°C° 0.1 mm 4 mps 763 mmHg 76%
    16:00 +3°C° 0 mm 4 mps 763 mmHg 79%
    17:00 +1°C° 0 mm 4 mps 764 mmHg 82%
    18:00 +1°C° 0 mm 4 mps 764 mmHg 85%
    19:00 +1°C° 0 mm 4 mps 764 mmHg 85%
    20:00 0°C° 0 mm 4 mps 765 mmHg 86%
    21:00 0°C° 0 mm 4 mps 765 mmHg 86%
    22:00 0°C° 0 mm 4 mps 765 mmHg 86%
    23:00 0°C° 0 mm 4 mps 765 mmHg 86%

    27 November, Monday

    Time Temperature Precipitation Wind Pressure Humidity
    00:00 0°C° 0 mm 4 mps 765 mmHg 86%
    01:00 0°C° 0 mm 4 mps 765 mmHg 86%
    02:00 0°C° 0 mm 4 mps 765 mmHg 85%
    03:00 0°C° 0 mm 4 mps 765 mmHg 85%
    04:00 0°C° 0 mm 4 mps 765 mmHg 85%
    05:00 0°C° 0 mm 4 mps 764 mmHg 85%
    06:00 -1°C° 0 mm 4 mps 764 mmHg 85%
    07:00 0°C° 0 mm 5 mps 764 mmHg 83%
    08:00 +1°C° 0 mm 5 mps 764 mmHg 81%
    09:00 +2°C° 0 mm 5 mps 764 mmHg 80%
    10:00 +3°C° 0 mm 6 mps 763 mmHg 78%
    11:00 +4°C° 0 mm 7 mps 763 mmHg 76%
    12:00 +5°C° 0 mm 7 mps 762 mmHg 74%
    13:00 +5°C° 0 mm 7 mps 761 mmHg 75%
    14:00 +5°C° 0 mm 7 mps 761 mmHg 76%
    15:00 +5°C° 0 mm 7 mps 760 mmHg 77%
    16:00 +5°C° 0.6 mm 8 mps 759 mmHg 80%
    17:00 +4°C° 0.6 mm 8 mps 759 mmHg 82%
    18:00 +4°C° 0.6 mm 8 mps 758 mmHg 85%
    19:00 +4°C° 0.8 mm 8 mps 758 mmHg 85%
    20:00 +4°C° 0.8 mm 8 mps 757 mmHg 86%
    21:00 +4°C° 0.8 mm 8 mps 757 mmHg 87%
    22:00 +4°C° 1.1 mm 8 mps 756 mmHg 88%
    23:00 +4°C° 1.1 mm 8 mps 755 mmHg 88%

    28 November, Tuesday

    Time Temperature Precipitation Wind Pressure Humidity
    00:00 +4°C° 1.1 mm 8 mps 755 mmHg 89%
    01:00 +4°C° 1 mm 7 mps 754 mmHg 89%
    02:00 +4°C° 1 mm 7 mps 753 mmHg 88%
    03:00 +4°C° 1 mm 7 mps 752 mmHg 88%
    04:00 +4°C° 1 mm 7 mps 752 mmHg 88%
    05:00 +3°C° 1 mm 7 mps 751 mmHg 88%
    06:00 +2°C° 1 mm 8 mps 750 mmHg 88%
    07:00 +2°C° 0.8 mm 8 mps 749 mmHg 87%
    08:00 +2°C° 0.8 mm 8 mps 748 mmHg 87%
    09:00 +2°C° 0.8 mm 8 mps 748 mmHg 87%
    10:00 +4°C° 0.8 mm 8 mps 747 mmHg 87%
    11:00 +4°C° 0.8 mm 8 mps 746 mmHg 87%
    12:00 +4°C° 0.8 mm 8 mps 745 mmHg 87%
    13:00 +4°C° 0.9 mm 7 mps 744 mmHg 87%
    14:00 +4°C° 0.9 mm 7 mps 744 mmHg 88%
    15:00 +4°C° 0.9 mm 6 mps 743 mmHg 88%
    16:00 +5°C° 1.2 mm 5 mps 743 mmHg 88%
    17:00 +5°C° 1.2 mm 5 mps 743 mmHg 88%
    18:00 +5°C° 1.2 mm 4 mps 743 mmHg 88%
    19:00 +4°C° 0.3 mm 4 mps 743 mmHg 87%
    20:00 +4°C° 0.3 mm 4 mps 743 mmHg 87%
    21:00 +3°C° 0.3 mm 4 mps 743 mmHg 86%
    22:00 +3°C° 0 mm 4 mps 744 mmHg 86%
    23:00 +1°C° 0 mm 4 mps 744 mmHg 87%

    29 November, Wednesday

    Time Temperature Precipitation Wind Pressure Humidity
    00:00 +1°C° 0 mm 4 mps 744 mmHg 87%
    01:00 +1°C° 0 mm 4 mps 744 mmHg 88%
    02:00 0°C° 0 mm 4 mps 744 mmHg 89%
    03:00 0°C° 0 mm 4 mps 744 mmHg 90%
    04:00 +1°C° 0 mm 3 mps 744 mmHg 91%
    05:00 +1°C° 0 mm 3 mps 744 mmHg 92%
    06:00 0°C° 0 mm 3 mps 744 mmHg 93%
    07:00 +1°C° 0 mm 3 mps 745 mmHg 91%
    08:00 +1°C° 0 mm 3 mps 745 mmHg 90%
    09:00 +2°C° 0 mm 3 mps 746 mmHg 88%
    10:00 +3°C° 0 mm 2 mps 746 mmHg 86%
    11:00 +4°C° 0 mm 2 mps 746 mmHg 83%
    12:00 +6°C° 0 mm 1 mps 746 mmHg 81%
    13:00 +6°C° 0 mm 1 mps 747 mmHg 82%
    14:00 +5°C° 0 mm 1 mps 747 mmHg 83%
    15:00 +5°C° 0 mm 1 mps 747 mmHg 85%
    16:00 +5°C° 0.2 mm 1 mps 748 mmHg 86%
    17:00 +4°C° 0.2 mm 2 mps 748 mmHg 87%
    18:00 +4°C° 0.2 mm 2 mps 749 mmHg 88%
    19:00 +4°C° 0.2 mm 2 mps 749 mmHg 90%
    20:00 +4°C° 0.2 mm 2 mps 750 mmHg 91%
    21:00 +2°C° 0.2 mm 3 mps 750 mmHg 92%
    22:00 +2°C° 0 mm 3 mps 750 mmHg 92%
    23:00 +3°C° 0 mm 2 mps 751 mmHg 92%
    Show more